This is the latest recevied weather packets stored in our database for station/object KE4BFX. If no packets are shown the sender has not sent any weather packets the latest 10 day(s).
| Time | Temp. | Humidity | Pressure | Rain* | Wind** | Luminosity | Snow |
|---|---|---|---|---|---|---|---|
| 1778181610 | 22.78° C | 90% | 1013.4 hPa | 8.38 mm | - | 271 W/m² | - |
| 1778178010 | 22.78° C | 90% | 1013.6 hPa | 1.27 mm | - | 60 W/m² | - |
| 1778175010 | 22.78° C | 90% | 1014.1 hPa | 8.13 mm | - | 232 W/m² | - |
| 1778171411 | 22.22° C | 89% | 1014.5 hPa | 4.83 mm | - | 95 W/m² | - |
| 1778164811 | 25.56° C | 86% | 1013.7 hPa | 0 mm | - | 0 W/m² | - |
| 1778163611 | 25.56° C | 86% | 1012.8 hPa | 0 mm | - | 111 W/m² | - |
| 1778162411 | 25.56° C | 87% | 1012.9 hPa | 0 mm | - | 258 W/m² | - |
| 1778157611 | 25° C | 89% | 1012.9 hPa | 0 mm | - | 95 W/m² | - |
| 1778157010 | 25° C | 89% | 1012.9 hPa | 0 mm | - | 74 W/m² | - |
| 1778155811 | 24.44° C | 89% | 1012.8 hPa | 0 mm | - | 70 W/m² | - |
| 1778154611 | 24.44° C | 89% | 1012.6 hPa | 0 mm | - | 12 W/m² | - |
| 1778154011 | 24.44° C | 89% | 1012.6 hPa | 0 mm | - | 5 W/m² | - |
| 1778149211 | 24.44° C | 89% | 1011.4 hPa | 0 mm | - | 0 W/m² | - |
| 1778147411 | 24.44° C | 89% | 1011.4 hPa | 0 mm | - | 0 W/m² | - |
| 1778145611 | 24.44° C | 89% | 1011.3 hPa | 0 mm | - | 0 W/m² | - |
| 1778143212 | 24.44° C | 89% | 1011.3 hPa | 0 mm | - | 0 W/m² | - |
| 1778136011 | 24.44° C | 90% | 1012.3 hPa | 0 mm | - | 0 W/m² | - |
| 1778134211 | 24.44° C | 90% | 1012.6 hPa | 0 mm | - | 0 W/m² | - |
| 1778133012 | 24.44° C | 90% | 1012.5 hPa | 0 mm | - | 0 W/m² | - |
| 1778127012 | 24.44° C | 90% | 1012.9 hPa | 0 mm | - | 0 W/m² | - |
| 1778123412 | 23.89° C | 90% | 1013.2 hPa | 0 mm | - | 0 W/m² | - |
| 1778122811 | 23.89° C | 90% | 1013 hPa | 0 mm | - | 0 W/m² | - |
| 1778122212 | 23.89° C | 89% | 1013 hPa | 0 mm | - | 0 W/m² | - |
| 1778114412 | 24.44° C | 88% | 1012.3 hPa | 0 mm | - | 0 W/m² | - |
| 1778110212 | 24.44° C | 88% | 1012.5 hPa | 0 mm | - | 7 W/m² | - |
* Rain latest hour (hover to see other rain measurements)
** Current wind speed in m/s (hover to see current wind gust speed)